• In Deutschland
  • Länderverzeichnis
  • Für 7 Tage
  • Wassertemperatur
  • Satellitenkarten
  • Wetterkarte
  • Widgets
  • user-avatar
    Anmelden

    Stündliche Wetter Igls

    Heute, 28 Juni, Mittwoch

    Zeit Temperatur Niederschläge Wind Luftdruck Luftfeuchtigkeit
    00:00 +16°C° 0 mm 2 m/S 679 mmHg 94%
    01:00 +16°C° 0 mm 2 m/S 678 mmHg 93%
    02:00 +16°C° 0 mm 2 m/S 678 mmHg 93%
    03:00 +16°C° 0 mm 2 m/S 678 mmHg 93%
    04:00 +16°C° 0 mm 2 m/S 677 mmHg 93%
    05:00 +17°C° 0 mm 2 m/S 677 mmHg 90%
    06:00 +18°C° 0 mm 2 m/S 677 mmHg 87%
    07:00 +19°C° 0 mm 3 m/S 677 mmHg 84%
    08:00 +20°C° 0,6 mm 3 m/S 677 mmHg 81%
    09:00 +21°C° 0,6 mm 3 m/S 677 mmHg 78%
    10:00 +21°C° 0,6 mm 2 m/S 678 mmHg 75%
    11:00 +22°C° 1,2 mm 3 m/S 677 mmHg 75%
    12:00 +22°C° 1,2 mm 3 m/S 677 mmHg 75%
    13:00 +22°C° 1,2 mm 3 m/S 677 mmHg 75%
    14:00 +21°C° 1,1 mm 2 m/S 677 mmHg 76%
    15:00 +21°C° 1,1 mm 2 m/S 676 mmHg 77%
    16:00 +20°C° 1,1 mm 2 m/S 676 mmHg 79%
    17:00 +20°C° 0,9 mm 2 m/S 675 mmHg 83%
    18:00 +19°C° 0,9 mm 2 m/S 675 mmHg 86%
    19:00 +19°C° 0,9 mm 1 m/S 674 mmHg 90%
    20:00 +18°C° 0,8 mm 1 m/S 674 mmHg 92%
    21:00 +16°C° 0,8 mm 1 m/S 674 mmHg 95%
    22:00 +15°C° 0,8 mm 1 m/S 673 mmHg 97%
    23:00 +15°C° 0,5 mm 1 m/S 673 mmHg 97%

    Morgen, 29 Juni, Donnerstag

    Zeit Temperatur Niederschläge Wind Luftdruck Luftfeuchtigkeit
    00:00 +14°C° 0,5 mm 1 m/S 673 mmHg 97%
    01:00 +14°C° 0,5 mm 1 m/S 673 mmHg 97%
    02:00 +14°C° 0,8 mm 1 m/S 673 mmHg 97%
    03:00 +14°C° 0,8 mm 1 m/S 672 mmHg 97%
    04:00 +13°C° 0,8 mm 1 m/S 672 mmHg 97%
    05:00 +14°C° 0,6 mm 1 m/S 672 mmHg 95%
    06:00 +14°C° 0,6 mm 1 m/S 673 mmHg 93%
    07:00 +15°C° 0,6 mm 1 m/S 673 mmHg 91%
    08:00 +16°C° 0,8 mm 1 m/S 674 mmHg 88%
    09:00 +16°C° 0,8 mm 1 m/S 674 mmHg 85%
    10:00 +18°C° 0,8 mm 1 m/S 675 mmHg 82%
    11:00 +18°C° 0,7 mm 1 m/S 675 mmHg 80%
    12:00 +19°C° 0,7 mm 1 m/S 675 mmHg 78%
    13:00 +20°C° 0,7 mm 1 m/S 675 mmHg 76%
    14:00 +19°C° 1,1 mm 1 m/S 675 mmHg 78%
    15:00 +19°C° 1,1 mm 1 m/S 675 mmHg 80%
    16:00 +19°C° 1,1 mm 1 m/S 675 mmHg 82%
    17:00 +18°C° 1,4 mm 1 m/S 676 mmHg 86%
    18:00 +16°C° 1,4 mm 1 m/S 676 mmHg 90%
    19:00 +15°C° 1,4 mm 1 m/S 676 mmHg 94%
    20:00 +14°C° 1,6 mm 1 m/S 676 mmHg 95%
    21:00 +13°C° 1,6 mm 1 m/S 676 mmHg 96%
    22:00 +12°C° 1,6 mm 1 m/S 677 mmHg 97%
    23:00 +12°C° 0,8 mm 1 m/S 677 mmHg 97%

    übermorgen, 30 Juni, Freitag

    Zeit Temperatur Niederschläge Wind Luftdruck Luftfeuchtigkeit
    00:00 +12°C° 0,8 mm 1 m/S 677 mmHg 97%
    01:00 +12°C° 0,8 mm 1 m/S 677 mmHg 97%
    02:00 +11°C° 1,4 mm 1 m/S 677 mmHg 97%
    03:00 +11°C° 1,4 mm 1 m/S 677 mmHg 96%
    04:00 +11°C° 1,4 mm 1 m/S 677 mmHg 96%
    05:00 +11°C° 0,4 mm 1 m/S 678 mmHg 95%
    06:00 +12°C° 0,4 mm 1 m/S 678 mmHg 94%
    07:00 +12°C° 0,4 mm 1 m/S 679 mmHg 93%
    08:00 +14°C° 0,1 mm 1 m/S 679 mmHg 84%
    09:00 +16°C° 0,1 mm 2 m/S 680 mmHg 74%
    10:00 +18°C° 0,1 mm 2 m/S 680 mmHg 65%
    11:00 +18°C° 0,6 mm 2 m/S 680 mmHg 66%
    12:00 +18°C° 0,6 mm 2 m/S 680 mmHg 66%
    13:00 +19°C° 0,6 mm 2 m/S 680 mmHg 66%
    14:00 +18°C° 1 mm 2 m/S 680 mmHg 69%
    15:00 +18°C° 1 mm 2 m/S 680 mmHg 72%
    16:00 +17°C° 1 mm 2 m/S 680 mmHg 74%
    17:00 +17°C° 1 mm 2 m/S 680 mmHg 79%
    18:00 +16°C° 1 mm 2 m/S 680 mmHg 83%
    19:00 +15°C° 1 mm 1 m/S 680 mmHg 87%
    20:00 +14°C° 1 mm 1 m/S 680 mmHg 90%
    21:00 +12°C° 1 mm 1 m/S 680 mmHg 94%
    22:00 +11°C° 1 mm 1 m/S 680 mmHg 97%
    23:00 +11°C° 0,6 mm 1 m/S 680 mmHg 97%

    1 Juli, Samstag

    Zeit Temperatur Niederschläge Wind Luftdruck Luftfeuchtigkeit
    00:00 +10°C° 0,6 mm 1 m/S 680 mmHg 97%
    01:00 +10°C° 0,6 mm 1 m/S 680 mmHg 98%
    02:00 +8°C° 0,5 mm 0 m/S 680 mmHg 97%
    03:00 +8°C° 0,5 mm 0 m/S 680 mmHg 97%
    04:00 +8°C° 0,5 mm 0 m/S 680 mmHg 97%
    05:00 +10°C° 0,2 mm 0 m/S 680 mmHg 94%
    06:00 +11°C° 0,2 mm 0 m/S 681 mmHg 91%
    07:00 +13°C° 0,2 mm 1 m/S 681 mmHg 87%
    08:00 +15°C° 0,2 mm 1 m/S 681 mmHg 81%
    09:00 +16°C° 0,2 mm 1 m/S 681 mmHg 75%
    10:00 +19°C° 0,2 mm 1 m/S 682 mmHg 69%
    11:00 +19°C° 0,6 mm 1 m/S 682 mmHg 68%
    12:00 +19°C° 0,6 mm 1 m/S 682 mmHg 68%
    13:00 +20°C° 0,6 mm 1 m/S 682 mmHg 67%
    14:00 +19°C° 1 mm 1 m/S 682 mmHg 71%
    15:00 +19°C° 1 mm 1 m/S 681 mmHg 75%
    16:00 +18°C° 1 mm 1 m/S 681 mmHg 79%
    17:00 +16°C° 1,2 mm 1 m/S 681 mmHg 84%
    18:00 +15°C° 1,2 mm 1 m/S 682 mmHg 89%
    19:00 +14°C° 1,2 mm 1 m/S 682 mmHg 94%
    20:00 +13°C° 0,4 mm 1 m/S 682 mmHg 95%
    21:00 +13°C° 0,4 mm 1 m/S 682 mmHg 96%
    22:00 +12°C° 0,4 mm 1 m/S 683 mmHg 97%
    23:00 +12°C° 0,2 mm 1 m/S 683 mmHg 97%

    2 Juli, Sonntag

    Zeit Temperatur Niederschläge Wind Luftdruck Luftfeuchtigkeit
    00:00 +11°C° 0,2 mm 1 m/S 683 mmHg 97%
    01:00 +11°C° 0,2 mm 1 m/S 683 mmHg 97%
    02:00 +11°C° 0,5 mm 1 m/S 683 mmHg 97%
    03:00 +11°C° 0,5 mm 1 m/S 683 mmHg 97%
    04:00 +11°C° 0,5 mm 1 m/S 683 mmHg 98%
    05:00 +12°C° 0,6 mm 2 m/S 684 mmHg 97%
    06:00 +12°C° 0,6 mm 2 m/S 684 mmHg 96%
    07:00 +12°C° 0,6 mm 2 m/S 684 mmHg 95%
    08:00 +13°C° 0,5 mm 2 m/S 685 mmHg 91%
    09:00 +14°C° 0,5 mm 2 m/S 685 mmHg 87%
    10:00 +15°C° 0,5 mm 2 m/S 686 mmHg 83%
    11:00 +15°C° 0,2 mm 2 m/S 686 mmHg 81%
    12:00 +16°C° 0,2 mm 2 m/S 686 mmHg 78%
    13:00 +17°C° 0,2 mm 2 m/S 686 mmHg 75%
    14:00 +18°C° 0 mm 2 m/S 686 mmHg 70%
    15:00 +18°C° 0 mm 2 m/S 686 mmHg 65%
    16:00 +19°C° 0 mm 2 m/S 686 mmHg 60%
    17:00 +18°C° 0 mm 2 m/S 686 mmHg 66%
    18:00 +17°C° 0 mm 2 m/S 687 mmHg 72%
    19:00 +16°C° 0 mm 2 m/S 687 mmHg 78%
    20:00 +15°C° 0 mm 1 m/S 687 mmHg 83%
    21:00 +13°C° 0 mm 1 m/S 687 mmHg 88%
    22:00 +12°C° 0 mm 1 m/S 687 mmHg 94%
    23:00 +12°C° 0 mm 1 m/S 687 mmHg 94%

    3 Juli, Montag

    Zeit Temperatur Niederschläge Wind Luftdruck Luftfeuchtigkeit
    00:00 +12°C° 0 mm 1 m/S 687 mmHg 94%
    01:00 +11°C° 0 mm 1 m/S 687 mmHg 94%
    02:00 +11°C° 0 mm 1 m/S 687 mmHg 95%
    03:00 +10°C° 0 mm 1 m/S 687 mmHg 95%
    04:00 +10°C° 0 mm 1 m/S 687 mmHg 96%
    05:00 +11°C° 0 mm 1 m/S 687 mmHg 92%
    06:00 +13°C° 0 mm 1 m/S 688 mmHg 89%
    07:00 +14°C° 0 mm 1 m/S 688 mmHg 86%
    08:00 +16°C° 0 mm 1 m/S 688 mmHg 79%
    09:00 +18°C° 0 mm 1 m/S 689 mmHg 73%
    10:00 +20°C° 0 mm 1 m/S 689 mmHg 66%
    11:00 +21°C° 0 mm 1 m/S 689 mmHg 62%
    12:00 +21°C° 0 mm 2 m/S 689 mmHg 59%
    13:00 +21°C° 0 mm 2 m/S 689 mmHg 55%
    14:00 +21°C° 0,1 mm 2 m/S 688 mmHg 58%
    15:00 +21°C° 0,1 mm 2 m/S 688 mmHg 60%
    16:00 +21°C° 0,1 mm 2 m/S 688 mmHg 63%
    17:00 +20°C° 0,1 mm 2 m/S 688 mmHg 71%
    18:00 +18°C° 0,1 mm 2 m/S 688 mmHg 79%
    19:00 +18°C° 0,1 mm 1 m/S 688 mmHg 87%
    20:00 +16°C° 0,1 mm 1 m/S 688 mmHg 90%
    21:00 +15°C° 0,1 mm 1 m/S 688 mmHg 94%
    22:00 +13°C° 0,1 mm 1 m/S 688 mmHg 98%
    23:00 +13°C° 0 mm 1 m/S 688 mmHg 97%
    Mehr zeigen